Regional Weather Roundup
Issued by NWS

Home | Current Version | Previous Version | Graphics & Text | Print | Product List | Glossary On
Versions: 1 2 3 4 5 6 7 8 9 10 11 12 13 14 15 16 17 18 19 20 21 22 23 24 25 26 27 28 29 30 31 32 33 34 35 36 37 38 39 40 41 42 43 44 45 46 47 48 49 50
000
ASUS43 KDTX 152201
RWRMI
MICHIGAN HOURLY REGIONAL WEATHER ROUNDUP
NATIONAL WEATHER SERVICE DETROIT/PONTIAC MI
600 PM EDT TUE AUG 15 2017

NOTE: "FAIR" INDICATES FEW OR NO CLOUDS BELOW 12,000 FEET WITH NO
SIGNIFICANT WEATHER AND/OR OBSTRUCTION TO VISIBILITY.

MIZ047>049-052>055-059>063-066>070-074>076-081>083-152300-
SOUTHEAST LOWER MICHIGAN

CITY           SKY/WX    TMP DP  RH WIND       PRES   REMARKS
ADRIAN         SUNNY     84  59  42 N5        29.93S
ALMA           SUNNY     78  54  42 CALM      29.94F
ANN ARBOR      SUNNY     82  61  48 NW8       29.92S
BAD AXE        MOSUNNY   75  56  52 N7        29.95S
CARO           SUNNY     78  57  48 W5        29.95R
DETROIT CITY   MOSUNNY   79  64  60 E7        29.92S
DETROIT        MOSUNNY   81  60  48 N8        29.91F
FLINT          MOSUNNY   80  58  46 N8        29.94S
GROSSE ILE     MOSUNNY   83  61  45 N8        29.90F
HILLSDALE      PTSUNNY   81  59  47 NW5       29.93S
HOWELL         CLOUDY    77  59  53 NE6       29.95R

CITY           SKY/WX    TMP DP  RH WIND       PRES   REMARKS
JACKSON          N/A    N/A N/A N/A MISG      29.94
LAMBERTVILLE   MOSUNNY   83  63  50 N6        29.91S
LANSING        CLOUDY    80  59  48 E6        29.94S
LAPEER         FAIR      78  55  43 NW7       29.95S
MASON          PTSUNNY   79  61  53 NE6       29.94S
MONROE         SUNNY     82  62  50 NW7       29.90S
MT. CLEMENS    PTSUNNY   78  67  69 E8        29.92S
PONTIAC        MOSUNNY   79  59  50 NW5       29.93S
PORT HOPE        N/A     73  60  63 CALM      29.95R
PORT HURON     SUNNY     75  59  57 NE9       29.94S
TRI CITIES     MOSUNNY   79  60  52 CALM      29.95R
MIDLAND        FAIR      79  58  49 N5        29.93S
TROY           SUNNY     81  58  46 NW7       29.94F
SAGINAW HB     SUNNY     77  57  50 NW3       29.94R
$$
MIZ043>046-050>051-056>058-064>065-071>073-077>080-152300-
SOUTHWEST LOWER MICHIGAN

CITY           SKY/WX    TMP DP  RH WIND       PRES   REMARKS
BATTLE CREEK   MOSUNNY   82  63  52 NW9       29.94S
BENTON HARBOR  SUNNY     75  62  64 VRB6      29.95S
BIG RAPIDS     SUNNY     77  56  48 N6        29.95S
COLDWATER      PTSUNNY   82  60  48 N7        29.93S
FREMONT        PTSUNNY   75  61  60 N9        29.95S
HOLLAND        SUNNY     77  61  57 NW9       29.95S
GRAND RAPIDS   PTSUNNY   80  58  46 N3        29.93S
IONIA          PTSUNNY   81  56  42 NW6       29.93S
KALAMAZOO      PTSUNNY   84  61  45 N8        29.93S
LUDINGTON      SUNNY     71  58  63 NW8       29.97S
MARSHALL       PTSUNNY   80  62  54 W5        29.93S
MOUNT PLEASANT MOSUNNY   80  57  44 N6        29.94S
MUSKEGON       MOSUNNY   80  60  50 NW12      29.95R
SOUTH HAVEN    SUNNY     76  64  65 N9        29.95S
$$
MIZ016>042-152300-
NORTHERN LOWER MICHIGAN

CITY           SKY/WX    TMP DP  RH WIND       PRES   REMARKS
ALPENA         CLOUDY    77  56  48 N8        29.96R
BEAVER ISLAND  SUNNY     72  58  62 W8        29.98S
BELLAIRE       SUNNY     72  54  53 NW5       29.97S
CADILLAC       MOSUNNY   75  56  50 N5        29.97S
CHARLEVOIX     SUNNY     71  58  63 W9        30.00S
FRANKFORT      SUNNY     71  61  70 NW6       29.98S
GAYLORD        CLOUDY    73  55  53 VRB6      29.98R
GRAYLING       MOSUNNY   75  56  51 W6        29.97F
HARBOR SPRINGS SUNNY     72  58  60 W6        29.96S
HOUGHTON LAKE  MOSUNNY   76  57  51 W7        29.97S
OSCODA         CLOUDY    72  60  65 S5        29.95R
PELLSTON       SUNNY     75  55  49 NW10      29.97S
ROGERS CITY    SUNNY     73  55  52 N7        29.97R
TRAVERSE CITY  MOSUNNY   74  58  57 N7        29.95S
$$
MIZ007>008-015-152300-
EASTERN UPPER MICHIGAN

CITY           SKY/WX    TMP DP  RH WIND       PRES   REMARKS
KINROSS        SUNNY     70  56  61 NW10      29.97R
MACKINAC ISLAN SUNNY     71  60  68 W12       29.96S
NEWBERRY       MOSUNNY   69  61  75 N7        29.97S
S. S. MARIE    SUNNY     71  58  63 NW9       29.96R
MUNISING         N/A     62  60  93 NW12      30.01S
$$
MIZ004>006-011>014-085-152300-
CENTRAL UPPER MICHIGAN

CITY           SKY/WX    TMP DP  RH WIND       PRES   REMARKS
MANISTIQUE     MOSUNNY   68  56  64 NW10      29.97F
SAWYER-GWINN   MOSUNNY   64  55  72 NE9       30.02F
$$
MIZ001>003-009>011-084-152300-
WESTERN UPPER MICHIGAN

CITY           SKY/WX    TMP DP  RH WIND       PRES   REMARKS
IRON MOUNTAIN  MOSUNNY   74  50  42 N6        29.98S
HOUGHTON       MOSUNNY   68  54  60 SE6       30.01F
COPPER HARBOR    N/A     61  53  75 CALM      30.03R
IRONWOOD       SUNNY     71  57  61 N6        30.01F
$$

ABBREVIATIONS USED IN REMARKS
   TC - TEMPERATURE IN CELSIUS
  WCI - WIND CHILL INDEX
   HX - HEAT INDEX
  VSB - VISIBILITY





USA.gov is the U.S. government's official web portal to all federal, state and local government web resources and services.